When you browse on this site, cookies collect data to enhance your experience and personalize the content and advertising you see.
Visit our Privacy Policy to learn more. By continuing to use the site, you agree to this use of cookies and data.
  • In Hungary
  • List of Countries
  • For 7 days
  • Water Temperature
  • Satellite Maps
  • Weather Map
  • News
  • Weather Widgets
  • user-avatar
    Login

    Hourly Weather Kashtanivka

    Today, 22 February, Friday

    Time Temperature Precipitation Wind Pressure Humidity
    00:00 +4°C° 0 mm 3 mps 758 mmHg 65%
    01:00 +4°C° 0 mm 3 mps 758 mmHg 64%
    02:00 +4°C° 0 mm 3 mps 758 mmHg 64%
    03:00 +4°C° 0 mm 3 mps 757 mmHg 66%
    04:00 +5°C° 0 mm 2 mps 757 mmHg 69%
    05:00 +4°C° 0 mm 2 mps 757 mmHg 72%
    06:00 +4°C° 0.2 mm 2 mps 757 mmHg 72%
    07:00 +5°C° 0.2 mm 2 mps 757 mmHg 73%
    08:00 +5°C° 0.2 mm 2 mps 757 mmHg 74%
    09:00 +4°C° 0.5 mm 3 mps 756 mmHg 74%
    10:00 +5°C° 0.5 mm 3 mps 756 mmHg 75%
    11:00 +5°C° 0.5 mm 4 mps 756 mmHg 75%
    12:00 +5°C° 0.6 mm 4 mps 756 mmHg 74%
    13:00 +5°C° 0.6 mm 3 mps 755 mmHg 74%
    14:00 +5°C° 0.6 mm 3 mps 755 mmHg 73%
    15:00 +3°C° 1 mm 4 mps 755 mmHg 79%
    16:00 +1°C° 1 mm 5 mps 755 mmHg 85%
    17:00 -2°C° 1 mm 6 mps 755 mmHg 90%
    18:00 -3°C° 1.4 mm 7 mps 755 mmHg 92%
    19:00 -6°C° 1.4 mm 8 mps 755 mmHg 93%
    20:00 -8°C° 1.4 mm 9 mps 756 mmHg 94%
    21:00 -8°C° 1 mm 9 mps 756 mmHg 94%
    22:00 -8°C° 1 mm 8 mps 756 mmHg 93%
    23:00 -8°C° 1 mm 8 mps 757 mmHg 93%

    Tomorrow, 23 February, Saturday

    Time Temperature Precipitation Wind Pressure Humidity
    00:00 -8°C° 0.5 mm 8 mps 757 mmHg 93%
    01:00 -10°C° 0.5 mm 8 mps 758 mmHg 93%
    02:00 -10°C° 0.5 mm 8 mps 758 mmHg 92%
    03:00 -10°C° 0.4 mm 8 mps 758 mmHg 92%
    04:00 -11°C° 0.4 mm 8 mps 759 mmHg 91%
    05:00 -11°C° 0.4 mm 8 mps 759 mmHg 91%
    06:00 -11°C° 0.2 mm 8 mps 759 mmHg 90%
    07:00 -10°C° 0.2 mm 8 mps 760 mmHg 89%
    08:00 -10°C° 0.2 mm 8 mps 761 mmHg 88%
    09:00 -10°C° 0 mm 8 mps 761 mmHg 88%
    10:00 -8°C° 0 mm 7 mps 761 mmHg 87%
    11:00 -8°C° 0 mm 7 mps 762 mmHg 86%
    12:00 -7°C° 0 mm 7 mps 762 mmHg 86%
    13:00 -7°C° 0 mm 7 mps 762 mmHg 86%
    14:00 -5°C° 0 mm 6 mps 763 mmHg 85%
    15:00 -6°C° 0 mm 6 mps 763 mmHg 86%
    16:00 -6°C° 0 mm 5 mps 763 mmHg 86%
    17:00 -6°C° 0 mm 5 mps 764 mmHg 86%
    18:00 -6°C° 0 mm 5 mps 764 mmHg 86%
    19:00 -5°C° 0 mm 4 mps 765 mmHg 86%
    20:00 -7°C° 0 mm 4 mps 765 mmHg 85%
    21:00 -7°C° 0 mm 4 mps 765 mmHg 85%
    22:00 -7°C° 0 mm 4 mps 766 mmHg 86%
    23:00 -7°C° 0 mm 4 mps 766 mmHg 86%

    Day after tomorrow, 24 February, Sunday

    Time Temperature Precipitation Wind Pressure Humidity
    00:00 -8°C° 0 mm 5 mps 766 mmHg 87%
    01:00 -8°C° 0 mm 5 mps 766 mmHg 88%
    02:00 -8°C° 0 mm 5 mps 766 mmHg 89%
    03:00 -10°C° 0 mm 5 mps 766 mmHg 89%
    04:00 -9°C° 0 mm 4 mps 766 mmHg 90%
    05:00 -9°C° 0 mm 4 mps 766 mmHg 90%
    06:00 -9°C° 0 mm 4 mps 767 mmHg 90%
    07:00 -8°C° 0 mm 4 mps 767 mmHg 90%
    08:00 -8°C° 0 mm 5 mps 768 mmHg 89%
    09:00 -7°C° 0 mm 5 mps 768 mmHg 89%
    10:00 -7°C° 0 mm 4 mps 768 mmHg 88%
    11:00 -5°C° 0 mm 4 mps 768 mmHg 88%
    12:00 -5°C° 0 mm 4 mps 768 mmHg 88%
    13:00 -4°C° 0 mm 4 mps 768 mmHg 88%
    14:00 -4°C° 0 mm 4 mps 768 mmHg 89%
    15:00 -4°C° 0 mm 4 mps 768 mmHg 89%
    16:00 -5°C° 0 mm 3 mps 768 mmHg 89%
    17:00 -5°C° 0 mm 3 mps 768 mmHg 90%
    18:00 -5°C° 0 mm 2 mps 769 mmHg 89%
    19:00 -6°C° 0 mm 2 mps 769 mmHg 89%
    20:00 -7°C° 0 mm 2 mps 769 mmHg 89%
    21:00 -7°C° 0 mm 2 mps 769 mmHg 88%
    22:00 -7°C° 0 mm 2 mps 770 mmHg 87%
    23:00 -7°C° 0 mm 2 mps 770 mmHg 86%

    25 February, Monday

    Time Temperature Precipitation Wind Pressure Humidity
    00:00 -8°C° 0 mm 2 mps 770 mmHg 85%
    01:00 -7°C° 0 mm 1 mps 770 mmHg 83%
    02:00 -7°C° 0 mm 1 mps 770 mmHg 82%
    03:00 -7°C° 0 mm 1 mps 769 mmHg 80%
    04:00 -7°C° 0 mm 1 mps 769 mmHg 78%
    05:00 -7°C° 0 mm 1 mps 769 mmHg 77%
    06:00 -7°C° 0 mm 1 mps 769 mmHg 77%
    07:00 -6°C° 0 mm 1 mps 769 mmHg 78%
    08:00 -4°C° 0 mm 1 mps 769 mmHg 78%
    09:00 -2°C° 0 mm 1 mps 769 mmHg 79%
    10:00 -3°C° 0 mm 2 mps 768 mmHg 79%
    11:00 -1°C° 0 mm 2 mps 768 mmHg 80%
    12:00 -1°C° 0 mm 2 mps 768 mmHg 81%
    13:00 0°C° 0 mm 3 mps 767 mmHg 82%
    14:00 +1°C° 0 mm 3 mps 766 mmHg 83%
    15:00 0°C° 0 mm 3 mps 766 mmHg 83%
    16:00 +1°C° 0 mm 2 mps 765 mmHg 84%
    17:00 -1°C° 0 mm 2 mps 765 mmHg 84%
    18:00 -1°C° 0 mm 2 mps 764 mmHg 85%
    19:00 -2°C° 0 mm 2 mps 764 mmHg 87%
    20:00 -2°C° 0 mm 2 mps 764 mmHg 88%
    21:00 -2°C° 0 mm 2 mps 764 mmHg 88%
    22:00 -3°C° 0 mm 2 mps 763 mmHg 89%
    23:00 -3°C° 0 mm 2 mps 762 mmHg 89%

    26 February, Tuesday

    Time Temperature Precipitation Wind Pressure Humidity
    00:00 -2°C° 0 mm 2 mps 762 mmHg 89%
    01:00 -2°C° 0 mm 2 mps 761 mmHg 89%
    02:00 -2°C° 0 mm 2 mps 761 mmHg 89%
    03:00 -2°C° 0 mm 2 mps 760 mmHg 90%
    04:00 -2°C° 0 mm 2 mps 759 mmHg 90%
    05:00 -2°C° 0 mm 2 mps 759 mmHg 91%
    06:00 -2°C° 0 mm 2 mps 758 mmHg 92%
    07:00 -1°C° 0 mm 2 mps 758 mmHg 92%
    08:00 0°C° 0 mm 3 mps 758 mmHg 93%
    09:00 0°C° 0 mm 3 mps 757 mmHg 91%
    10:00 +1°C° 0 mm 3 mps 757 mmHg 89%
    11:00 +1°C° 0 mm 4 mps 756 mmHg 87%
    12:00 +1°C° 0 mm 4 mps 755 mmHg 85%
    13:00 +3°C° 0 mm 4 mps 755 mmHg 84%
    14:00 +3°C° 0 mm 4 mps 754 mmHg 82%
    15:00 +2°C° 0 mm 3 mps 754 mmHg 85%
    16:00 +1°C° 0 mm 3 mps 753 mmHg 88%
    17:00 +2°C° 0 mm 2 mps 753 mmHg 91%
    18:00 +2°C° 0 mm 2 mps 752 mmHg 91%
    19:00 +1°C° 0 mm 2 mps 752 mmHg 92%
    20:00 0°C° 0 mm 3 mps 752 mmHg 92%
    21:00 0°C° 0.1 mm 3 mps 751 mmHg 93%
    22:00 0°C° 0.1 mm 3 mps 751 mmHg 93%
    23:00 0°C° 0.1 mm 3 mps 750 mmHg 94%

    27 February, Wednesday

    Time Temperature Precipitation Wind Pressure Humidity
    00:00 0°C° 0.1 mm 3 mps 749 mmHg 93%
    01:00 0°C° 0.1 mm 3 mps 749 mmHg 92%
    02:00 -1°C° 0.1 mm 3 mps 748 mmHg 91%
    03:00 -1°C° 0.2 mm 2 mps 747 mmHg 91%
    04:00 -1°C° 0.2 mm 2 mps 747 mmHg 91%
    05:00 +1°C° 0.2 mm 1 mps 746 mmHg 91%
    06:00 -1°C° 0.4 mm 2 mps 746 mmHg 92%
    07:00 -1°C° 0.4 mm 2 mps 746 mmHg 93%
    08:00 +1°C° 0.4 mm 2 mps 746 mmHg 94%
    09:00 0°C° 0.1 mm 3 mps 747 mmHg 91%
    10:00 0°C° 0.1 mm 4 mps 747 mmHg 88%
    11:00 0°C° 0.1 mm 5 mps 748 mmHg 85%
    12:00 0°C° 0.1 mm 5 mps 748 mmHg 81%
    13:00 +1°C° 0.1 mm 5 mps 749 mmHg 78%
    14:00 +1°C° 0.1 mm 6 mps 749 mmHg 74%
    15:00 0°C° 0.1 mm 5 mps 750 mmHg 74%
    16:00 0°C° 0.1 mm 5 mps 750 mmHg 73%
    17:00 0°C° 0.1 mm 5 mps 751 mmHg 73%
    18:00 -1°C° 0 mm 5 mps 752 mmHg 74%
    19:00 -2°C° 0 mm 5 mps 752 mmHg 75%
    20:00 -3°C° 0 mm 4 mps 753 mmHg 76%
    21:00 -3°C° 0 mm 4 mps 753 mmHg 79%
    22:00 -3°C° 0 mm 4 mps 754 mmHg 81%
    23:00 -4°C° 0 mm 3 mps 754 mmHg 83%
    Show more